Location: Newark
(9.4667°S, 159.8167°E)
Time: 11:41:18
(UTC+00:00)

Vanguard 1 - Pass Details

Date: 21 November 2019
Orbit: 652 x 3832 km, 34.3° (Epoch: 10 December)

Event Time Altitude Azimuth Distance (km) Brightness Sun altitude
Rises 13:54:47 0° 237° (WSW) 6,103 14.2 -58.3°
Reaches altitude 10° 13:59:05 10° 227° (SW) 5,516 13.9 -57.9°
Maximum altitude 14:15:10 34° 167° (SSE) 4,900 13.6 -56.1°
Drops below altitude 10° 14:35:21 10° 108° (ESE) 6,879 14.7 -53.4°
Sets 14:41:36 0° 99° (E) 7,723 15.0 -52.4°
